Home > Weather > Potsdam > Past weeks

Flag for Germany Past Weather in Potsdam, Brandenburg, Germany — Yesterday and Last 2 Weeks

Now
72 °F

Passing clouds.


Feels Like: 76 °F
Forecast: 63 / 76 °F
Wind: 3 mph from Southwest

Location: Berlin-Tegel

Current Time: Jul 29, 2016 at 9:57:47 PM

Latest Report: Jul 29, 2016 at 9:20 PM


Visibility: N/A

Pressure: 29.83 "Hg

Humidity: 57%

Dew Point: 55 °F

Location of PotsdamLocation

Past Weather in Potsdam — Graph

°F

Potsdam Temperature Yesterday

Maximum temperature yesterday: 77 °F (at 5:50 PM)
Minimum temperature yesterday: 61 °F (at 5:20 AM)
Average temperature yesterday: 70 °F

High & Low Weather Summary for the Past Weeks

 TemperatureHumidityPressure
High88 °F (Jul 25, 2:20 PM)94% (Jul 27, 4:50 PM)30.24 "Hg (Jul 27, 4:50 PM)
Low48 °F (Jul 16, 5:20 AM)13% (Jul 22, 2:50 PM)29.83 "Hg (Jul 29, 5:20 PM)
Average70 °F62%30.05 "Hg
* Reported Jul 14 8:20 PM — Jul 29 8:20 PM, Potsdam, Weather by CustomWeather, © 2016

Note: Actual official high and low records may vary slightly from our data, if they occured in-between our weather recording intervals... More about our weather records

Advertising

Potsdam Weather History for the Previous 24 Hours

Scroll right to see more
 ConditionsComfort  
Time TempWeatherWind HumidityBarometerVisibility
8:20 PM
Fri, Jul 29
73 °FSunny.7 mph50%29.83 "Hg10 mi
7:50 PM75 °FSunny.10 mph47%29.83 "Hg10 mi
7:20 PM75 °FSunny.12 mph44%29.83 "Hg10 mi
6:50 PM77 °FSunny.13 mph44%29.83 "Hg10 mi
6:20 PM77 °FScattered clouds.12 mph47%29.83 "HgN/A
5:50 PM77 °FScattered clouds.10 mph47%29.83 "HgN/A
5:20 PM77 °FScattered clouds.12 mph47%29.83 "HgN/A
4:50 PM77 °FScattered clouds.13 mph47%29.86 "HgN/A
4:20 PM77 °FBroken clouds.10 mph47%29.86 "HgN/A
3:50 PM79 °FBroken clouds.14 mph45%29.86 "HgN/A
3:20 PM77 °FBroken clouds.14 mph42%29.86 "HgN/A
2:50 PM77 °FBroken clouds.17 mph36%29.86 "HgN/A
2:20 PM77 °FBroken clouds.9 mph44%29.86 "HgN/A
1:50 PM77 °FBroken clouds.10 mph44%29.86 "HgN/A
1:20 PM75 °FBroken clouds.14 mph47%29.86 "HgN/A
12:50 PM77 °FBroken clouds.13 mph51%29.89 "HgN/A
12:20 PM75 °FScattered clouds.12 mph54%29.89 "HgN/A
11:50 AM72 °FScattered clouds.10 mph61%29.89 "HgN/A
11:20 AM72 °FScattered clouds.10 mph69%29.89 "HgN/A
10:50 AM72 °FPartly sunny.12 mph69%29.89 "HgN/A
10:20 AM70 °FPartly sunny.10 mph73%29.89 "HgN/A
9:50 AM68 °FPartly sunny.9 mph83%29.89 "HgN/A
9:20 AM68 °FPartly sunny.13 mph78%29.89 "HgN/A
8:50 AM68 °FScattered clouds.10 mph78%29.89 "HgN/A
8:20 AM66 °FPassing clouds.9 mph83%29.89 "HgN/A
7:50 AM66 °FScattered clouds.7 mph83%29.89 "HgN/A
7:20 AM64 °FScattered clouds.3 mph88%29.89 "HgN/A
6:50 AM63 °FScattered clouds.3 mph94%29.89 "HgN/A
6:20 AM63 °FPartly cloudy.3 mph88%29.89 "HgN/A
5:50 AM63 °FFog.2 mph94%29.89 "HgN/A
5:20 AM64 °FFog.1 mph88%29.86 "HgN/A
4:50 AM64 °FLight rain. Passing clouds.1 mph88%29.89 "HgN/A
4:20 AM64 °FLight rain. Passing clouds.1 mph88%29.89 "HgN/A
3:50 AM64 °FPartly cloudy.2 mph88%29.89 "HgN/A
3:20 AM64 °FPartly cloudy.2 mph88%29.89 "HgN/A
2:50 AM64 °FLight rain. Overcast.2 mph88%29.89 "HgN/A
2:20 AM64 °FLight rain. Mostly cloudy.3 mph88%29.89 "HgN/A
1:50 AM64 °FLight rain. Passing clouds.5 mph88%29.92 "HgN/A
1:20 AM64 °FThundershowers. Partly cloudy.7 mph88%29.92 "HgN/A
12:50 AM66 °FSprinkles. Partly cloudy.3 mph88%29.92 "HgN/A
12:20 AM68 °FLight rain. Partly cloudy.8 mph78%29.92 "HgN/A
11:50 PM
Thu, Jul 28
68 °FClear.1 mph73%29.92 "Hg10 mi
11:20 PM70 °FPassing clouds.3 mph73%29.92 "HgN/A
10:50 PM70 °FPassing clouds.5 mph73%29.92 "HgN/A
10:20 PM70 °FClear.2 mph69%29.92 "Hg10 mi
9:50 PM72 °FPartly sunny.2 mph65%29.92 "HgN/A
9:20 PM73 °FScattered clouds.3 mph57%29.92 "HgN/A
Weather by CustomWeather, © 2016

See weather overviewHow to use our weather pages